Location: Blachownia
(50.7807°N, 18.9578°E)
Time: 10:31:01
(UTC+01:00)

ISS - Pass Details

Date: 02 February 2019
Orbit: 403 x 411 km, 51.6° (Epoch: 16 February)

Event Time Altitude Azimuth Distance (km) Brightness Sun altitude
Rises 19:41:53 0° 286° (WNW) 2,341 1.2 -29.2°
Reaches altitude 10° 19:44:01 10° 279° (W) 1,479 -0.1 -29.6°
Enters shadow 19:44:44 15° 274° (W) 1,208 -0.6 -29.7°
